Flag for U.S.A. Weather past 2 weeks in Des Moines, Iowa, U.S.A.

Now
61 °F

Clear.


Feels Like: 61 °F
Forecast: 59 / 83 °F
Wind: 3 mph from Northwest

Location: Des Moines International Airport

Current Time: Jul 31, 2014 at 4:15:19 AM

Latest Report: Jul 31, 2014 at 3:54 AM


Visibility: 10 mi

Pressure: 30.06 "Hg

Humidity: 87%

Dew point: 57 °F

Location of Des MoinesLocation

Historic Weather in Des Moines — Graph

°F

Des Moines temperature yesterday

Maximum temperature yesterday: 82 °F (at 2:54 PM)
Minimum temperature yesterday: 59 °F (at 5:54 AM)
Average temperature yesterday: 71 °F

Past Weeks' High & Low Weather Summary

 TemperatureHumidityPressure
High92 °F (Jul 21, 3:54 PM)91% (Jul 27, 1:54 AM)30.20 "Hg (Jul 27, 1:54 AM)
Low59 °F (Jul 16, 4:54 AM)37% (Jul 16, 3:54 PM)29.74 "Hg (Jul 25, 8:54 PM)
Average74 °F65%30.00 "Hg
* Reported Jul 16 2:54 AM — Jul 31 2:54 AM, Des Moines, Weather by CustomWeather, © 2014

Note: Actual official high and low records may vary slightly from our data, if they occured in-between our weather recording intervals... More about our weather records

Advertising

Des Moines weather history for previous 24 hours

 ConditionsComfort  
Time TempWeatherWind HumidityBarometerVisibility
2:54 AM
Jul 31
64 °FClear.No wind78%30.06 "Hg10 mi
1:54 AM65 °FClear.3 mph78%30.07 "Hg10 mi
12:54 AM67 °FClear.No wind68%30.07 "Hg10 mi
11:54 PM
Jul 30
69 °FClear.No wind63%30.07 "Hg10 mi
10:54 PM70 °FClear.No wind61%30.07 "Hg10 mi
9:54 PM70 °FClear.5 mph59%30.07 "Hg10 mi
8:54 PM74 °FPassing clouds.3 mph52%30.06 "Hg10 mi
7:54 PM77 °FPassing clouds.5 mph45%30.06 "Hg10 mi
6:54 PM78 °FPassing clouds.5 mph42%30.05 "Hg10 mi
5:54 PM78 °FPassing clouds.6 mph40%30.05 "Hg10 mi
4:54 PM82 °FPassing clouds.7 mph37%30.06 "Hg10 mi
3:54 PM82 °FPassing clouds.8 mph38%30.07 "Hg10 mi
2:54 PM82 °FPassing clouds.7 mph40%30.07 "Hg10 mi
1:54 PM81 °FPassing clouds.3 mph39%30.08 "Hg10 mi
12:54 PM77 °FPassing clouds.7 mph45%30.09 "Hg10 mi
11:54 AM76 °FPassing clouds.7 mph47%30.11 "Hg10 mi
10:54 AM77 °FPassing clouds.6 mph48%30.11 "Hg10 mi
9:54 AM74 °FPassing clouds.6 mph57%30.11 "Hg10 mi
8:54 AM68 °FPassing clouds.5 mph68%30.10 "Hg10 mi
7:54 AM63 °FPassing clouds.3 mph78%30.10 "Hg10 mi
6:54 AM59 °FPassing clouds.No wind84%30.09 "Hg10 mi
5:54 AM59 °FPassing clouds.3 mph84%30.08 "Hg10 mi
4:54 AM60 °FClear.3 mph83%30.07 "Hg10 mi
Weather by CustomWeather, © 2014

See weather overviewHow to use our weather pages